Tracking 19246 objects as of 20-Aug-2018
HD Live streaming from Space Station
objects crossing your sky now

FENGYUN 1C DEB

Track FENGYUN 1C DEB now!
10-day predictions


NORAD ID: 30333
Int'l Code: 1999-025AAU
Perigee: 514.2 km
Apogee: 726.3 km
Inclination: 98.9 °
Period: 97.0 minutes
Semi major axis: 6991 km
RCS: 0.026 m2 (small)
Launch date: May 10, 1999
Source: People's Republic of China (PRC)
Launch site: Taiyaun Space Center, China (TSC)

Note: This is SATELLITE DEBRIS
aabbcc
Your satellite tracking list
Your tracking list is empty




NASA's NSSDC Master Catalog

Two Line Element Set (TLE):
1 30333U 99025AAU 18231.86442959  .00001199  00000-0  12142-3 0  9992
2 30333  98.8889 305.5792 0151687 139.2652 288.9058 14.85146601620285
Source of the keplerian elements: AFSPC